This demonstration page uses our WeatherBlox Daily Observations layout. Learn more.

38.89511, -77.03637

Hourly Observations for February 3, 2020

Temp ( °F °C ) Dew Point ( °F °C ) Humidity (%) Winds ( mph kmh ) Pressure ( in mb ) Visibility ( mi km ) Precip ( " mm )
12:52 am 00:52 Mostly Clear 52 11.1 34 1.1 50 50 S 5 7 29.63 1003 10 16.0934 0 0
1:52 am 01:52 Clear 59 15 35 1.7 41 41 W 8 13 29.66 1005 10 16.0934 0 0
2:52 am 02:52 Clear 57 13.9 34 1.1 42 42 WNW 7 11 29.7 1006 10 16.0934 0 0
3:52 am 03:52 Clear 57 13.9 33 0.6 41 41 VRB 3 6 29.72 1006 10 16.0934 0 0
4:52 am 04:52 Mostly Clear 53 11.7 34 1.1 48 48 WSW 5 7 29.76 1008 10 16.0934 0 0
5:52 am 05:52 Mostly Clear 44 6.7 37 2.8 76 76 SSE 7 11 29.8 1009 10 16.0934 0 0
6:52 am 06:52 Mostly Clear 44 6.7 36 2.2 73 73 SSW 6 9 29.85 1011 10 16.0934 0 0
7:52 am 07:52 Partly Cloudy 45 7.2 35 1.7 68 68 WSW 5 7 29.89 1012 10 16.0934 0 0
8:52 am 08:52 Partly Cloudy 45 7.2 38 3.3 77 77 S 8 13 29.92 1013 10 16.0934 0 0
9:52 am 09:52 Mostly Cloudy 51 10.6 37 2.8 59 59 Calm 29.94 1014 10 16.0934 0 0
10:52 am 10:52 Mostly Cloudy 52 11.1 36 2.2 55 55 S 7 11 29.95 1014 10 16.0934 0 0
11:52 am 11:52 Mostly Cloudy 57 13.9 38 3.3 49 49 S 8 13 29.93 1014 10 16.0934 0 0
12:52 pm 12:52 Mostly Cloudy 61 16.1 36 2.2 39 39 SSE 7 11 29.91 1013 10 16.0934 0 0
1:52 pm 13:52 Mostly Cloudy 59 15 38 3.3 46 46 S 9 15 29.88 1012 10 16.0934 0 0
2:52 pm 14:52 Mostly Cloudy 61 16.1 37 2.8 41 41 S 7 11 29.86 1011 10 16.0934 0 0
3:52 pm 15:52 Cloudy 59 15 39 3.9 48 48 S 7 11 29.87 1012 10 16.0934 0 0
4:52 pm 16:52 Cloudy 59 15 38 3.3 46 46 S 9 15 29.86 1011 10 16.0934 0 0
5:52 pm 17:52 Cloudy 58 14.4 38 3.3 48 48 SSW 7 11 29.86 1011 10 16.0934 0 0
6:52 pm 18:52 Cloudy 60 15.6 38 3.3 44 44 SW 5 7 29.86 1011 10 16.0934 0 0
7:52 pm 19:52 Mostly Cloudy 56 13.3 39 3.9 53 53 S 6 9 29.85 1011 10 16.0934 0 0
8:52 pm 20:52 Partly Cloudy 54 12.2 39 3.9 57 57 S 8 13 29.85 1011 10 16.0934 0 0
9:52 pm 21:52 Mostly Cloudy 53 11.7 40 4.4 61 61 S 8 13 29.85 1011 10 16.0934 0 0
10:52 pm 22:52 Mostly Cloudy 53 11.7 40 4.4 61 61 S 9 15 29.85 1011 10 16.0934 0 0
11:52 pm 23:52 Cloudy 54 12.2 39 3.9 57 57 S 10 17 29.83 1010 10 16.0934 0 0

Powered by AerisWeather